Lid_Strength_Index
6 5 6 8 9 8 8 7 6 4 4 4 2 2 2 3 3 3 3 3 3 7 8 8 10 10 11 11 10 10 10 11 15 17 17 17 17 17 17 17 17 15 16
6 4 4 6 8 9 8 7 6 5 3 4 4 4 3 3 3 3 5 6 8 10 11 11 13 12 12 12 11 12 12 12 14 17 17 17 18 17 18 19 18 16 17
6 5 4 4 7 10 9 8 6 6 5 5 6 7 8 9 10 10 9 10 11 12 12 13 14 14 15 15 15 15 15 14 15 16 18 17 18 17 18 18 17 17 19
6 5 5 4 5 9 10 10 9 9 5 6 7 9 10 10 11 12 13 14 15 14 15 15 15 15 16 16 16 17 16 16 16 17 18 19 19 18 18 19 19 17 19
7 6 5 5 5 7 11 12 12 12 11 11 12 11 11 12 12 13 14 15 16 16 16 16 17 17 16 16 17 17 16 17 17 18 19 19 19 19 19 19 19 18 19
7 7 6 6 7 8 10 13 14 13 14 14 15 15 14 14 14 14 15 16 17 17 17 17 17 17 17 16 16 16 16 17 18 18 18 19 20 20 19 19 19 19 20
8 7 6 7 8 9 10 11 11 14 14 14 15 16 17 15 14 15 16 17 17 17 17 18 18 17 17 17 16 16 16 15 16 16 18 19 20 20 19 20 21 20 21
7 7 7 7 9 9 11 12 12 13 15 14 14 15 16 16 15 15 16 17 17 17 17 17 18 18 18 18 18 19 19 19 19 19 20 20 20 20 20 20 21 20 19
8 8 8 8 9 10 11 12 12 12 13 14 14 14 16 16 15 15 16 17 17 17 17 18 18 18 17 17 18 19 19 19 17 17 18 18 19 19 20 20 21 20 20
9 9 8 8 9 10 11 13 13 13 13 13 14 14 15 16 14 14 15 17 18 18 17 17 17 17 16 16 18 19 19 20 20 21 22 21 21 21 20 20 20 20 21
9 9 9 8 10 11 11 11 13 13 13 13 15 15 15 15 15 15 15 16 17 17 17 16 16 16 17 17 16 18 19 20 20 22 22 22 22 22 22 21 20 20 20
11 11 10 10 11 11 12 12 13 14 14 15 15 15 15 15 15 14 14 15 15 17 17 16 16 16 16 17 17 16 17 19 21 21 22 22 21 21 21 21 21 20 20
11 12 12 11 12 12 13 13 13 14 15 15 16 16 16 15 15 14 14 14 15 16 16 16 16 16 16 17 17 18 19 20 20 20 21 21 21 21 21 21 21 21 21
11 11 11 12 12 12 12 13 13 14 15 15 15 16 15 15 15 15 15 15 15 15 15 16 18 18 18 19 19 19 19 19 19 20 21 22 21 22 22 21 22 21 21
12 12 11 12 12 13 13 13 13 14 13 14 15 15 15 15 15 15 15 16 15 16 17 18 19 20 20 20 21 21 21 21 21 21 22 22 22 22 22 21 22 22 21
12 12 13 12 12 12 13 13 12 12 12 13 13 14 14 13 13 14 15 15 15 15 17 18 19 19 20 21 21 22 21 22 21 21 21 22 22 22 22 22 22 22 22
13 14 14 13 14 13 13 13 15 13 12 12 13 13 13 13 13 14 13 12 13 15 18 18 19 19 20 20 21 21 22 22 22 22 22 22 22 22 22 23 22 22 22
14 17 13 13 13 13 14 14 14 14 14 14 13 13 12 11 12 12 12 13 17 18 17 18 19 19 19 20 20 21 22 23 22 22 23 23 23 23 23 23 23 24 23
14 13 14 14 14 15 15 15 15 14 13 13 13 12 12 11 12 12 12 15 17 18 18 18 18 19 19 20 21 21 22 22 23 23 23 24 24 23 24 24 24 27 26
16 18 17 15 16 15 15 14 14 14 14 14 13 13 13 12 13 13 14 16 17 18 19 19 20 20 20 21 22 23 23 24 24 24 24 24 24 24 24 25 24 24 24
15 15 17 15 15 15 15 14 14 15 14 15 14 13 12 12 13 13 15 16 17 18 19 20 21 21 22 22 22 23 23 23 24 23 24 24 25 25 25 24 24 25 25
15 15 16 15 15 16 15 15 15 15 15 15 15 15 13 13 13 14 15 15 16 17 19 20 21 21 22 22 22 22 23 23 24 24 24 25 25 25 26 25 25 25 25
15 16 16 16 16 18 18 17 17 16 16 16 15 16 15 13 14 15 15 16 19 20 21 21 22 24 23 23 22 22 23 24 23 23 24 25 26 25 25 25 25 25 24
15 15 16 16 17 17 17 17 18 18 16 16 17 17 16 15 15 16 17 19 21 22 23 24 24 24 24 23 23 23 23 24 24 25 25 25 25 27 25 26 25 25 25
15 15 16 16 17 18 18 18 19 19 19 18 18 18 18 18 17 18 21 23 24 25 25 25 25 25 25 25 25 25 26 26 26 27 27 26 25 26 26 26 25 24 24
15 15 16 17 18 18 18 18 19 19 20 19 19 19 20 20 20 22 24 25 26 26 26 25 25 25 25 25 25 26 28 26 28 29 26 25 25 25 25 25 25 24 22